| time (UTC) | temp F | wind direction | speed knots | gust knots | rain 1hr in | rain 24hr in | rain mn in | humidity % | barometer mb |
| 20260502181513 | 59 | 227 | 4.3 | 14.8 | 0.00 | 0.00 | 0.00 | 31 | 1018.1 |
| 20260502163056 | 54 | 243 | 2.6 | 7.8 | 0.00 | 0.00 | 0.00 | 40 | 1019.4 |
| 20260502161619 | 53 | 252 | 1.7 | 12.2 | 0.00 | 0.00 | 0.00 | 42 | 1019.6 |
| 20260502160116 | 53 | 254 | 5.2 | 8.7 | 0.00 | 0.00 | 0.00 | 43 | 1019.7 |
| 20260502151544 | 51 | 252 | 3.5 | 11.3 | 0.00 | 0.00 | 0.00 | 47 | 1020.1 |
| 20260502123012 | 0 | 273 | 0.9 | 3.5 | 0.00 | 0.00 | 0.00 | 1020.2 | |
| 20260502121506 | 0 | 281 | 0.0 | 0.0 | 0.00 | 0.00 | 0.00 | 1020.2 | |
| 20260502114559 | 0 | 287 | 0.0 | 0.0 | 0.00 | 0.00 | 0.00 | 1019.9 | |
| 20260502113054 | 0 | 288 | 0.0 | 0.9 | 0.00 | 0.00 | 0.00 | 1019.8 | |
| 20260502111552 | 0 | 288 | 0.0 | 0.0 | 0.00 | 0.00 | 0.00 | 1019.8 | |
| 20260502110049 | 34 | 288 | 0.0 | 0.0 | 0.00 | 0.00 | 0.00 | 68 | 1019.8 |
| 20260502104544 | 35 | 288 | 0.0 | 0.0 | 0.00 | 0.00 | 0.00 | 68 | 1019.8 |
| 20260502103043 | 35 | 288 | 0.0 | 0.0 | 0.00 | 0.00 | 0.00 | 70 | 1019.7 |
| 20260502101550 | 34 | 288 | 0.0 | 0.0 | 0.00 | 0.00 | 0.00 | 72 | 1019.8 |
| 20260502071518 | 39 | 288 | 0.0 | 0.0 | 0.00 | 0.00 | 0.00 | 66 | 1019.7 |
| 20260502070020 | 39 | 288 | 0.0 | 0.0 | 0.00 | 0.00 | 0.00 | 66 | 1019.7 |
| 20260502064518 | 39 | 288 | 0.0 | 0.0 | 0.00 | 0.00 | 0.00 | 67 | 1019.7 |
| 20260502063015 | 39 | 288 | 0.0 | 0.0 | 0.00 | 0.00 | 0.00 | 68 | 1019.7 |
| 20260502061513 | 40 | 288 | 0.0 | 0.0 | 0.00 | 0.00 | 0.00 | 67 | 1019.8 |
| 20260502060011 | 40 | 288 | 0.0 | 0.0 | 0.00 | 0.00 | 0.00 | 66 | 1019.7 |
| 20260502054515 | 41 | 288 | 0.0 | 0.0 | 0.00 | 0.00 | 0.00 | 65 | 1019.6 |
| 20260502053004 | 42 | 288 | 0.0 | 0.0 | 0.00 | 0.00 | 0.00 | 63 | 1019.6 |
| 20260502051502 | 43 | 288 | 0.0 | 2.6 | 0.00 | 0.00 | 0.00 | 61 | 1019.5 |
| 20260502050058 | 44 | 288 | 0.0 | 0.0 | 0.00 | 0.00 | 0.00 | 59 | 1019.5 |
| 20260502044557 | 44 | 287 | 0.0 | 0.0 | 0.00 | 0.00 | 0.00 | 59 | 1019.4 |
| 20260502043110 | 45 | 286 | 0.0 | 0.0 | 0.00 | 0.00 | 0.00 | 58 | 1019.3 |
| 20260502041557 | 46 | 308 | 1.7 | 4.3 | 0.00 | 0.00 | 0.00 | 58 | 1019.2 |
| 20260502040105 | 46 | 317 | 1.7 | 5.2 | 0.00 | 0.00 | 0.00 | 58 | 1019.2 |
| 20260502034602 | 47 | 336 | 4.3 | 7.0 | 0.00 | 0.00 | 0.00 | 57 | 1019.2 |
| 20260502033058 | 46 | 310 | 3.5 | 6.1 | 0.00 | 0.00 | 0.00 | 57 | 1019.2 |
| 20260502031552 | 46 | 306 | 2.6 | 5.2 | 0.00 | 0.00 | 0.00 | 57 | 1019.2 |
| 20260502030052 | 47 | 307 | 0.9 | 3.5 | 0.00 | 0.00 | 0.00 | 56 | 1019.2 |
| 20260502024608 | 47 | 320 | 0.0 | 5.2 | 0.00 | 0.00 | 0.00 | 54 | 1019.0 |
| 20260502023049 | 47 | 313 | 2.6 | 6.1 | 0.00 | 0.00 | 0.00 | 52 | 1018.8 |
| 20260502021550 | 48 | 308 | 3.5 | 6.1 | 0.00 | 0.00 | 0.00 | 53 | 1018.8 |
| 20260502020047 | 48 | 304 | 4.3 | 6.1 | 0.00 | 0.00 | 0.00 | 52 | 1018.6 |
| 20260502014545 | 49 | 291 | 2.6 | 5.2 | 0.00 | 0.00 | 0.00 | 51 | 1018.3 |
| 20260502013043 | 49 | 331 | 3.5 | 5.2 | 0.00 | 0.00 | 0.00 | 48 | 1018.2 |
| 20260502011542 | 50 | 339 | 5.2 | 7.8 | 0.00 | 0.00 | 0.00 | 48 | 1018.1 |
| 20260502010049 | 50 | 333 | 6.1 | 9.6 | 0.00 | 0.00 | 0.00 | 48 | 1018.0 |
| 20260502004553 | 50 | 312 | 4.3 | 7.8 | 0.00 | 0.00 | 0.00 | 45 | 1017.8 |
| 20260502003037 | 51 | 333 | 5.2 | 9.6 | 0.00 | 0.00 | 0.00 | 48 | 1017.7 |
| 20260502001537 | 51 | 355 | 5.2 | 8.7 | 0.00 | 0.00 | 0.00 | 47 | 1017.6 |
| 20260502000034 | 52 | 348 | 7.8 | 12.2 | 0.00 | 0.00 | 0.00 | 46 | 1017.5 |
| 20260501234534 | 52 | 344 | 6.1 | 9.6 | 0.00 | 0.00 | 0.00 | 43 | 1017.4 |
| 20260501233034 | 53 | 320 | 7.0 | 12.2 | 0.00 | 0.00 | 0.00 | 47 | 1017.4 |
| 20260501231533 | 54 | 335 | 5.2 | 10.4 | 0.00 | 0.00 | 0.00 | 43 | 1017.4 |
| 20260501230034 | 53 | 333 | 7.0 | 10.4 | 0.00 | 0.00 | 0.00 | 44 | 1017.3 |
| 20260501224533 | 53 | 305 | 7.0 | 11.3 | 0.00 | 0.00 | 0.00 | 44 | 1017.3 |
| 20260501223031 | 54 | 348 | 7.0 | 10.4 | 0.00 | 0.00 | 0.00 | 42 | 1017.3 |
| 20260501221530 | 53 | 344 | 6.1 | 9.6 | 0.00 | 0.00 | 0.00 | 40 | 1017.3 |
| 20260501220035 | 54 | 305 | 0.0 | 7.8 | 0.00 | 0.00 | 0.00 | 42 | 1017.2 |
| 20260501214529 | 54 | 339 | 4.3 | 9.6 | 0.00 | 0.00 | 0.00 | 41 | 1017.2 |
| 20260501213043 | 54 | 340 | 1.7 | 10.4 | 0.00 | 0.00 | 0.00 | 39 | 1017.2 |
| 20260501211529 | 54 | 304 | 2.6 | 11.3 | 0.00 | 0.00 | 0.00 | 41 | 1017.1 |
| 20260501210037 | 55 | 302 | 5.2 | 12.2 | 0.00 | 0.00 | 0.00 | 42 | 1017.1 |
| 20260501204526 | 54 | 318 | 3.5 | 10.4 | 0.00 | 0.00 | 0.00 | 42 | 1017.3 |
| 20260501203022 | 53 | 350 | 7.0 | 11.3 | 0.00 | 0.00 | 0.00 | 46 | 1017.4 |
| 20260501201523 | 53 | 344 | 1.7 | 10.4 | 0.00 | 0.00 | 0.00 | 46 | 1017.4 |
| 20260501200020 | 54 | 333 | 7.8 | 13.9 | 0.00 | 0.00 | 0.00 | 46 | 1017.4 |
| 20260501194524 | 52 | 307 | 1.7 | 11.3 | 0.00 | 0.00 | 0.00 | 46 | 1017.4 |
| 20260501193016 | 52 | 344 | 4.3 | 11.3 | 0.00 | 0.00 | 0.00 | 48 | 1017.3 |
| 20260501191515 | 52 | 297 | 5.2 | 9.6 | 0.00 | 0.00 | 0.00 | 48 | 1017.3 |
| 20260501190014 | 52 | 302 | 7.0 | 10.4 | 0.00 | 0.00 | 0.00 | 48 | 1017.3 |
| 20260501184513 | 52 | 297 | 2.6 | 8.7 | 0.00 | 0.00 | 0.00 | 48 | 1017.2 |
| 20260501183013 | 52 | 300 | 4.3 | 7.8 | 0.00 | 0.00 | 0.00 | 49 | 1017.2 |